This is the latest recevied weather packets stored in our database for station/object KC1OEK-13. If no packets are shown the sender has not sent any weather packets the latest 10 day(s).
| Time | Temp. | Humidity | Pressure | Rain* | Wind** | Luminosity | Snow |
|---|---|---|---|---|---|---|---|
| 1778235255 | 4.44° C | 92% | 1012.7 hPa | 0 mm | - | 14 W/m² | - |
| 1778234951 | 4.44° C | 91% | 1012.6 hPa | 0 mm | - | 12 W/m² | - |
| 1778234650 | 4.44° C | 90% | 1012.6 hPa | 0 mm | - | 11 W/m² | - |
| 1778234345 | 4.44° C | 88% | 1012.6 hPa | 0 mm | - | 9 W/m² | - |
| 1778234043 | 5° C | 88% | 1012.5 hPa | 0 mm | - | 7 W/m² | - |
| 1778233740 | 5.56° C | 86% | 1012.3 hPa | 0 mm | - | 5 W/m² | - |
| 1778233437 | 5.56° C | 83% | 1012.2 hPa | 0 mm | - | 3 W/m² | - |
| 1778233134 | 5.56° C | 78% | 1012.4 hPa | 0 mm | - | 2 W/m² | - |
| 1778232831 | 5° C | 86% | 1012.3 hPa | 0 mm | - | 1 W/m² | - |
| 1778232528 | 5.56° C | 86% | 1012.4 hPa | 0 mm | - | 0 W/m² | - |
| 1778232226 | 5.56° C | 84% | 1012.3 hPa | 0 mm | - | 0 W/m² | - |
| 1778231924 | 6.11° C | 79% | 1012.2 hPa | 0 mm | - | 0 W/m² | - |
| 1778231620 | 5.56° C | 81% | 1012.4 hPa | 0 mm | - | 0 W/m² | - |
| 1778231319 | 5° C | 90% | 1012.3 hPa | 0 mm | - | 0 W/m² | - |
| 1778231017 | 5° C | 92% | 1012.5 hPa | 0 mm | - | 0 W/m² | - |
| 1778230712 | 5° C | 92% | 1012.2 hPa | 0 mm | - | 0 W/m² | - |
| 1778230409 | 5° C | 91% | 1012.1 hPa | 0 mm | - | 0 W/m² | - |
| 1778230106 | 5.56° C | 90% | 1012.3 hPa | 0 mm | - | 0 W/m² | - |
| 1778229803 | 5° C | 90% | 1012.2 hPa | 0 mm | - | 0 W/m² | - |
| 1778229500 | 5° C | 93% | 1012.3 hPa | 0 mm | - | 0 W/m² | - |
| 1778229198 | 4.44° C | 93% | 1012.4 hPa | 0 mm | - | 0 W/m² | - |
| 1778228897 | 4.44° C | 93% | 1012.1 hPa | 0 mm | - | 0 W/m² | - |
| 1778228595 | 4.44° C | 93% | 1012.2 hPa | 0 mm | - | 0 W/m² | - |
| 1778228292 | 4.44° C | 93% | 1012.2 hPa | 0 mm | - | 0 W/m² | - |
| 1778227989 | 4.44° C | 93% | 1012.4 hPa | 0 mm | - | 0 W/m² | - |
* Rain latest hour (hover to see other rain measurements)
** Current wind speed in m/s (hover to see current wind gust speed)